Location: Bald Rock
(37.3738°N, 119.9354°W)
Time: 22:52:20
(UTC+00:00)

Cosmos 968 Rocket - Pass Details

Date: 08 September 2024
Orbit: 738 x 766 km, 74.0° (Epoch: 12 October)

Event Time Altitude Azimuth Distance (km) Brightness Sun altitude
Rises 13:02:55 0° 185° (S) 3,209 6.5 -7.4°
Reaches altitude 10° 13:05:19 10° 181° (S) 2,284 5.8 -6.9°
Maximum altitude 13:10:23 56° 104° (ESE) 897 4.3 -6.0°
Drops below altitude 10° 13:15:26 10° 27° (NNE) 2,281 6.5 -5.0°
Sets 13:17:49 0° 23° (NNE) 3,205 7.2 -4.5°
